Weather History for KRSL - January, 2013

Change the Weather History Date:

Monday, January 14, 2013

  Actual Average Record
Temperature  
Mean Temperature 18 °F -  
Max Temperature 28 °F 41 °F 67 °F (1990)
Min Temperature 8 °F 17 °F -10 °F (1979)
Degree Days  
Heating Degree Days 47    
Moisture  
Dew Point 10 °F    
Average Humidity 68    
Maximum Humidity 87    
Minimum Humidity 43    
Precipitation  
Precipitation 0.00 in - - ()
Sea Level Pressure  
Sea Level Pressure 30.43 in    
Wind  
Wind Speed 4 mph (South)    
Max Wind Speed 8 mph    
Max Gust Speed -    
Visibility 10 miles    
Events      
Averages and records for this station are not official NWS values.
T = Trace of Precipitation, MM = Missing Value Source: NWS Daily Summary

Daily Weather History Graph

Daily Weather History Graph

Search for Another Location

Airport or City:

Trip Planner

Search our weather history database for the weather conditions in past years. The results will help you decide how hot, cold, wet, or windy it might be!

Date:

Astronomy

Jan. 14, 2013 Rise Set
Actual Time 7:52 AM CST 5:36 PM CST
Civil Twilight 7:23 AM CST 6:05 PM CST
Nautical Twilight 6:50 AM CST 6:38 PM CST
Astronomical Twilight 6:18 AM CST 7:10 PM CST
Moon 9:29 AM CST (1/14) 9:21 PM CST (1/14)
Length of Visible Light 10h 42m
Length of Day
9h 44m
Waxing Crescent, 11% of the Moon is Illuminated
Jan 14
Waxing Crescent
Jan 18
First Quarter
Jan 26
Full
Feb 3
Last Quarter
Feb 10
New

Hourly Weather History & Observations

Time (CST) Temp. Windchill Dew Point Humidity Pressure Visibility Wind Dir Wind Speed Gust Speed Precip Events Conditions
12:53 AM 12.9 °F 6.9 °F 8.1 °F 81% 30.42 in 10.0 mi WSW 3.5 mph - N/A   Clear
1:53 AM 12.9 °F - 7.0 °F 77% 30.43 in 10.0 mi Calm Calm - N/A   Clear
2:53 AM 12.9 °F 6.9 °F 8.1 °F 81% 30.44 in 10.0 mi West 3.5 mph - N/A   Clear
4:53 AM 8.1 °F -2.0 °F 5.0 °F 87% 30.45 in 10.0 mi SSW 5.8 mph - N/A   Clear
5:53 AM 9.0 °F 0.6 °F 5.0 °F 84% 30.46 in 10.0 mi WSW 4.6 mph - N/A   Clear
6:53 AM 9.0 °F 2.4 °F 5.0 °F 84% 30.48 in 10.0 mi WSW 3.5 mph - N/A   Clear
7:53 AM 8.1 °F -0.5 °F 3.9 °F 83% 30.52 in 10.0 mi WSW 4.6 mph - N/A   Clear
8:53 AM 12.0 °F 4.1 °F 8.1 °F 84% 30.52 in 10.0 mi SSW 4.6 mph - N/A   Clear
9:53 AM 18.0 °F 8.7 °F 12.0 °F 78% 30.52 in 10.0 mi SW 6.9 mph - 0.00 in   Clear
10:53 AM 21.9 °F 15.7 °F 12.9 °F 68% 30.49 in 10.0 mi WSW 4.6 mph - N/A   Clear
11:53 AM 25.0 °F - 10.0 °F 53% 30.45 in 10.0 mi Calm Calm - N/A   Clear
12:53 PM 26.1 °F 21.9 °F 10.0 °F 51% 30.41 in 10.0 mi Variable 3.5 mph - N/A   Clear
1:53 PM 28.9 °F - 9.0 °F 43% 30.38 in 10.0 mi Calm Calm - N/A   Clear
2:53 PM 28.9 °F 25.2 °F 9.0 °F 43% 30.37 in 10.0 mi West 3.5 mph - N/A   Clear
3:53 PM 28.9 °F - 9.0 °F 43% 30.38 in 10.0 mi Calm Calm - N/A   Clear
4:53 PM 28.0 °F 24.2 °F 10.0 °F 47% 30.38 in 10.0 mi East 3.5 mph - N/A   Clear
5:53 PM 24.1 °F 17.0 °F 12.0 °F 60% 30.39 in 10.0 mi East 5.8 mph - N/A   Clear
6:53 PM 24.1 °F 17.0 °F 14.0 °F 65% 30.40 in 10.0 mi East 5.8 mph - N/A   Clear
7:53 PM 23.0 °F 14.7 °F 14.0 °F 68% 30.41 in 10.0 mi ESE 6.9 mph - N/A   Clear
8:53 PM 23.0 °F 13.9 °F 14.0 °F 68% 30.41 in 10.0 mi SE 8.1 mph - N/A   Clear
9:53 PM 21.0 °F 13.4 °F 14.0 °F 74% 30.40 in 10.0 mi SE 5.8 mph - N/A   Clear
10:53 PM 21.0 °F 12.4 °F 12.9 °F 71% 30.39 in 10.0 mi SE 6.9 mph - N/A   Overcast
11:53 PM 19.9 °F 11.1 °F 12.0 °F 71% 30.38 in 10.0 mi SE 6.9 mph - N/A   Mostly Cloudy